Погода Дно

Погода Дно : погода сейчас, прогноз погоды и архив. Всё, что Вы хотите узнать о погоде Дно!

Поиск расширенной информации на нашем сайте:

Другие новости

Новости СМИ2

Главная страница сайта

Новости сайта

03.07.2017

Напоминаем, что на нашем специализированном сайте Метеоцентр.Азия вы можете получить высокодетализированные автоматические прогнозы погоды по пунктам России, СНГ и мира в авиационном формате (включающие направление и скорость ветра, видимость, явления погоды, количество и форму облачности, нижнюю и верхнюю границу облачности).


Погода Дно - сегодня

Время (UTC), дата Ветер
(°,м/с) 
Видим.   Явления Облачность Т
(°С)
Тd
(°С)
f(%) Тe
(°С)
Pmin
(гПа)
dP
(гПа)
Po
(мм)
O2
(г/м3)
Тmin Tmax R s Состояние
почвы
12 19.09.18 250 (З) н/о    н/о 
+24.7 +11.2 43 +27  1011.4  -0.9  753  276           
15 19.09.18 210 (ЮЗ) н/о    н/о 
+23.3 +13.1 53 +29  1010.8  -0.6  753  277           
21 19.09.18 250 (З) н/о    н/о 
+16.5 +13.4 82 +23  1011.9  1.1  753  284           
00 20.09.18 250 (З) н/о    н/о 
+13.8 +12.3 91 +18  1013.4  1.4  754  287           
03 20.09.18 240 (ЮЗ) н/о    н/о 
+12.8 +11.7 93 +16  1014.5  755  288  +12.6         
09 20.09.18 220 (ЮЗ) н/о    н/о 
+19.5 +13.5 68 +26  1015.3  0.5  756  282           
12 20.09.18 230 (ЮЗ) н/о    н/о 
+22.6 +13.6 57 +29  1015  -0.2  756  279           
15 20.09.18 210 (ЮЗ) н/о    н/о 
+21.6 +12.8 57 +27  1014.6  -0.4  755  280           
21 20.09.18 190 (Ю) н/о    н/о 
+17.2 +12.7 75 +23  1014.1  -0.3  755  284           
00 21.09.18 180 (Ю) н/о    н/о 
+13.7 +12.6 93 +20  1014.4  0.2  755  287           
03 21.09.18 200 (Ю) н/о    н/о 
+14.3 +13 92 +21  1015  0.6  755  287  +12.3         
09 21.09.18 210 (ЮЗ) н/о    н/о 
+21.3 +14.3 64 +29  1015.2  756  280           
12 21.09.18 200 (Ю) н/о    н/о 
+24.7 +12.8 47 +30  1014.8  -0.3  756  277           
15 21.09.18 150 (ЮВ) н/о    н/о 
+23.2 +13.4 54 +29  1013.4  -1.5  754  278           
21 21.09.18 160 (Ю) н/о    н/о 
+18.5 +14.9 80 +27  1010.7  -1.6  752  281           
00 22.09.18 160 (Ю) н/о    н/о 
+16.5 +13.6 83 +23  1008.7  -2  751  283           
03 22.09.18 160 (Ю) н/о    н/о 
+16.5 +12.3 76 +21  1006.2  -2.5  749  282  +16.4         
09 22.09.18 220 (ЮЗ) 6-12{12}  н/о    н/о 
+20.3 +12.7 62 +25  1003.8  747  278           
15 22.09.18 180 (Ю) н/о    н/о 
+11.5 +9.9 90 +12  1007.8  750  288      0.4     
21 22.09.18 220 (ЮЗ) н/о    н/о 
+10.8 +8.7 87 +10  1006.9  -0.4  749  289           
00 23.09.18 220 (ЮЗ) н/о    н/о 
+9.1 +7.7 91 +9  1006.7  -0.2  749  291           
03 23.09.18 180 (Ю) н/о    н/о 
+6.7 +6.3 97 +7  1005.4  -1.4  748  293  +5.8         
09 23.09.18 230 (ЮЗ) н/о    н/о 
+12.8 +5.8 62 +12  1004.1  -0.6  747  287           
12 23.09.18 220 (ЮЗ) н/о    н/о 
+12.9 +5.9 62 +12  1003.9  -0.2  747  287           
15 23.09.18 250 (З) н/о    н/о 
+8.5 +7.6 94 +7  1004.6  0.6  748  291         
Время (UTC), дата Ветер
(°,м/с) 
Видим.   Явления Облачность Т
(°С)
Тd
(°С)
f(%) Тe
(°С)
Pmin
(гПа)
dP
(гПа)
Po
(мм)
O2
(г/м3)
Тmin Tmax R s Состояние
почвы

Для получения пояснительной информации подведите курсор к названию столбца.

ПОГОДА Дно - архив

Всё, что Вы хотите узнать о погоде Дно - удобно и подробно!

Выберите нужную дату (начиная с 1 января 2015* года) и нажмите кнопку "Найти".
Будут отображены архивные сводки погоды по пункту Дно, начиная с указанной даты.


Отображать данные в формате CSV (для использования в таблицах Excel)


Внимание! Наш архив погоды предназначен исключительно для личного некоммерческого использования в познавательных целях. Если Вам необходимы официальные справки о состоянии погоды (для производственных, юридических, коммерческих и т.п. целей), обращайтесь в органы Росгидромета.

*Примечание: данная дата относится к архиву по метеостанциям СССР (Россия, СНГ, Балтия).
Архив по метеостанциям Зарубежной Европы и Азии (кроме Китая) хранится 10 дней, по другим регионам земного шара (Китай, Африка, Америка, Австралия, Океания) - 1 день.

Дно - район местоположения метеостанции


Название, широта, долгота, высота метеостанции:
Дно 57.8°ш. 29.9°д. 71 м над ур. моря [Российская Федерация]

Дополнительная информация

В oтличие oт бoльшинства пoгoдных сайтoв мы публикуем пoдрoбную метеoинфoрмацию в детальнoм прoфессиoнальнoм фoрмате.

Характеристики температуры и влажнoсти вoздуха измеряются на высoте 2 м в тени вдали oт зданий и деревьев.
Скoрoсть ветра измеряется на высoте 10 м (на урoвне рoста челoвека скoрoсть ветра ниже в 1.5-2 раза). Если метеoстанция нахoдится в гoрoде или в лесу, тo скoрoсть ветра занижена на 2-4 м/с пo сравнению с oткрытым местoм. Скoрoсть ветра над акватoриями крупных рек и oзёр, а также на вершинах хoлмoв на 2-5 м/с выше, чем в oбычных услoвиях.
Атмoсфернoе давление в разных тoчках местнoсти мoжет значительнo oтличаться oт давления на метеoстанции, в зависимoсти oт услoвий рельефа (при пoдъёме на 10 м давление пoнижается примернo на 1 мм рт.ст.).